This is the latest recevied weather packets stored in our database for station/object OM3WYM-13. If no packets are shown the sender has not sent any weather packets the latest 10 day(s).
| Time | Temp. | Humidity | Pressure | Rain* | Wind** | Luminosity | Snow |
|---|---|---|---|---|---|---|---|
| 1777756808 | 6.11° C | 65% | 1023.5 hPa | - | - | - | - |
| 1777756209 | 6.67° C | 64% | 1023.5 hPa | - | - | - | - |
| 1777754409 | 7.78° C | 61% | 1023.5 hPa | - | - | - | - |
| 1777753808 | 7.78° C | 60% | 1023.4 hPa | - | - | - | - |
| 1777753209 | 8.33° C | 59% | 1023.3 hPa | - | - | - | - |
| 1777752609 | 8.33° C | 57% | 1023.2 hPa | - | - | - | - |
| 1777751409 | 9.44° C | 54% | 1022.9 hPa | - | - | - | - |
| 1777750809 | 9.44° C | 53% | 1022.7 hPa | - | - | - | - |
| 1777749609 | 10.56° C | 51% | 1022.5 hPa | - | - | - | - |
| 1777747809 | 12.22° C | 45% | 1022 hPa | - | - | - | - |
| 1777746009 | 14.44° C | 39% | 1021.5 hPa | - | - | - | - |
| 1777744809 | 15.56° C | 33% | 1020.9 hPa | - | - | - | - |
| 1777744209 | 16.11° C | 32% | 1020.8 hPa | - | - | - | - |
| 1777743609 | 16.67° C | 32% | 1020.5 hPa | - | - | - | - |
| 1777743009 | 17.22° C | 31% | 1020.5 hPa | - | - | - | - |
| 1777739409 | 22.22° C | 23% | 1019.6 hPa | - | - | - | - |
| 1777738808 | 22.78° C | 23% | 1019.6 hPa | - | - | - | - |
| 1777738208 | 22.78° C | 23% | 1019.7 hPa | - | - | - | - |
| 1777737609 | 23.89° C | 22% | 1019.6 hPa | - | - | - | - |
| 1777737009 | 23.33° C | 23% | 1019.7 hPa | - | - | - | - |
| 1777736409 | 24.44° C | 22% | 1019.7 hPa | - | - | - | - |
| 1777735810 | 23.89° C | 22% | 1019.8 hPa | - | - | - | - |
| 1777735208 | 24.44° C | 22% | 1019.9 hPa | - | - | - | - |
| 1777734609 | 24.44° C | 22% | 1020 hPa | - | - | - | - |
| 1777734008 | 24.44° C | 21% | 1020 hPa | - | - | - | - |
* Rain since midnight (hover to see other rain measurements)
** Current wind speed in m/s (hover to see current wind gust speed)